Regional Weather Roundup
Issued by NWS

Home | Current Version | Previous Version | Text Only | Print | Product List | Glossary On
Versions: 1 2 3 4 5 6 7 8 9 10 11 12 13 14 15 16 17 18 19 20 21 22 23 24 25 26 27 28 29 30 31 32 33 34 35 36 37 38 39 40 41 42 43 44 45 46 47 48 49 50
000
ASUS43 KDTX 062210
RWRMI
MICHIGAN HOURLY REGIONAL WEATHER ROUNDUP
NATIONAL WEATHER SERVICE DETROIT/PONTIAC MI
500 PM EST FRI MAR 06 2015

NOTE: "FAIR" INDICATES FEW OR NO CLOUDS BELOW 12,000 FEET WITH NO
SIGNIFICANT WEATHER AND/OR OBSTRUCTION TO VISIBILITY.

MIZ047>049-052>055-059>063-066>070-074>076-081>083-062300-
SOUTHEAST LOWER MICHIGAN

CITY           SKY/WX    TMP DP  RH WIND       PRES   REMARKS
ADRIAN         PTSUNNY   21   9  59 SW15      30.29F
ALMA           SUNNY     22   7  50 S15       30.16F
ANN ARBOR      PTSUNNY   20   6  55 SW16G23   30.26F
BAD AXE        PTSUNNY   24   4  43 SW10      30.16F
DETROIT CITY   SUNNY     24   4  42 SW18G28   30.27F
DETROIT        MOSUNNY   22   8  55 S24       30.30F
FLINT          PTSUNNY   26   0  32 SW12G21   30.21F
GROSSE ILE     SUNNY     23  10  58 S17       30.28F
HILLSDALE      PTSUNNY   23   5  46 S13       30.22F
HOWELL         CLOUDY    24   1  38 S12G17    30.20F

CITY           SKY/WX    TMP DP  RH WIND       PRES   REMARKS
JACKSON        PTSUNNY   23   2  40 S14       30.22F
LAMBERTVILLE   SUNNY     27  10  50 SW8G17    30.31F
LANSING        MOSUNNY   22   3  44 SW14      30.21F
LAPEER         NOT AVBL
MASON          CLOUDY    23   3  41 S9G16     30.21F
MONROE         SUNNY     23   9  54 SW14      30.29F
MT. CLEMENS    MOSUNNY   22   5  46 SW17      30.25F
PONTIAC        PTSUNNY   21   3  45 S15G23    30.22F
PORT HOPE        N/A     23   2  40 SW10G17   30.14F
PORT HURON     MOSUNNY   21   9  58 S13G21    30.25F
TRI CITIES     CLOUDY    24   4  42 S21G28    30.16F
YPSILANTI      MOSUNNY   23   8  52 SW18      30.28F
$$
MIZ043>046-050>051-056>058-064>065-071>073-077>080-062300-
SOUTHWEST LOWER MICHIGAN

CITY           SKY/WX    TMP DP  RH WIND       PRES   REMARKS
BATTLE CREEK   SUNNY     23   5  46 S20       30.21F
BENTON HARBOR  CLOUDY    23   8  52 S16G23    30.22F
BIG RAPIDS     CLOUDY    24   5  44 S13       30.10F
COLDWATER      PTSUNNY   23   6  47 S10       30.24F
HOLLAND        CLOUDY    25   7  46 S18G24    30.19F
GRAND RAPIDS   PTSUNNY   24   5  44 S16       30.17F
KALAMAZOO      CLOUDY    22   6  50 S16       30.22F
MARSHALL       PTSUNNY   22   4  47 S7G18     30.22F
MUSKEGON       CLOUDY    22   9  57 S20G31    30.18S
$$
MIZ016>042-062300-
NORTHERN LOWER MICHIGAN

CITY           SKY/WX    TMP DP  RH WIND       PRES   REMARKS
ALPENA         PTSUNNY   28   9  44 S15       30.02F
BEAVER ISLAND  CLOUDY    25  20  81 SW17G29   29.98S
BELLAIRE       CLOUDY    30  12  47 SW16G29   30.02S
CADILLAC       PTSUNNY   23  11  60 SW22G32   30.02F
CHARLEVOIX     PTSUNNY   28  14  54 SW16G23   30.02F
FRANKFORT      CLOUDY    25  19  80 S20G29    30.05F
GAYLORD        CLOUDY    26  10  50 SW20G26   29.97F
GRAYLING       MOSUNNY   27  10  49 S13G25    30.02F
HARBOR SPRINGS PTSUNNY   28  13  54 SW18G26   29.98F
HOUGHTON LAKE  SUNNY     24   8  50 S17       30.04F
MANISTEE       CLOUDY    25  16  68 SW15G26   30.08F
OSCODA         MOSUNNY   23   9  54 S15G24    30.09F
PELLSTON       PTSUNNY   29  11  47 SW13G29   29.98F
TRAVERSE CITY  CLOUDY    29  13  51 SW18G29   30.01F
$$
MIZ007>008-015-062300-
EASTERN UPPER MICHIGAN

CITY           SKY/WX    TMP DP  RH WIND       PRES   REMARKS
KINROSS        CLOUDY    25  19  80 SW17G29   29.95F
MACKINAC ISLAN MOSUNNY   26  15  63 W16G25    29.97S
NEWBERRY       LGT SNOW  23  17  78 S23G29    29.91F
S. S. MARIE    CLOUDY    25  15  66 SW14G26   29.95S
$$
MIZ004>006-011>014-085-062300-
CENTRAL UPPER MICHIGAN

CITY           SKY/WX    TMP DP  RH WIND       PRES   REMARKS
MANISTIQUE     CLOUDY    26  14  62 SW12G26   29.94F
ESCANABA       SUNNY     25  16  68 S17G25    29.94F
MENOMINEE      SUNNY     28  12  50 SW17      29.96F
SAWYER-GWINN   SUNNY     32  10  40 W12       29.85S
$$
MIZ001>003-009>011-084-062300-
WESTERN UPPER MICHIGAN

CITY           SKY/WX    TMP DP  RH WIND       PRES   REMARKS
IRON MOUNTAIN  SUNNY     32  11  41 W12       29.89S
HOUGHTON       SUNNY     25  13  60 W22G30    29.87S
COPPER HARBOR    N/A     28  11  48 VRB7G24   29.88R
IRONWOOD       SUNNY     30  12  47 W15       29.90R
$$

ABBREVIATIONS USED IN REMARKS
   TC - TEMPERATURE IN CELSIUS
  WCI - WIND CHILL INDEX
   HX - HEAT INDEX
  VSB - VISIBILITY




USA.gov is the U.S. government's official web portal to all federal, state and local government web resources and services.